| DS18B20 | SHTC3 | ||||||
|---|---|---|---|---|---|---|---|
| ID | Date d/m/Y & Time | data1 สูง | data2 ต่ำ | data3 นอก | temp pcb | hum pcb | Time |
| 2951 | 16/03/2026 08:30:41 | 27.6  | 27.2  | 28.5  | 27.4  | 71.9  | 08:30 |
| 2950 | 16/03/2026 08:25:59 | 27.5  | 27.2  | 28.5  | 27.4  | 72.2  | 08:25 |
| 2949 | 16/03/2026 08:21:17 | 27.4  | 27.2  | 28.2  | 27.2  | 72.3  | 08:21 |
| 2948 | 16/03/2026 08:16:35 | 27.3  | 27.1  | 28.0  | 27.2  | 72.4  | 08:16 |
| 2947 | 16/03/2026 08:11:53 | 27.2  | 27.1  | 28.1  | 27.1  | 72.6  | 08:11 |
| 2946 | 16/03/2026 08:07:11 | 27.2  | 27.1  | 27.9  | 27.1  | 72.6  | 08:07 |
| 2945 | 16/03/2026 08:02:29 | 27.1  | 27.0  | 27.6  | 27.1  | 72.8  | 08:02 |
| 2944 | 16/03/2026 07:57:47 | 27.1  | 27.0  | 27.4  | 27.1  | 72.9  | 07:57 |
| 2943 | 16/03/2026 07:53:05 | 27.0  | 27.0  | 27.1  | 26.9  | 73.0  | 07:53 |
| 2942 | 16/03/2026 07:48:24 | 27.1  | 27.0  | 27.0  | 26.9  | 73.0  | 07:48 |
| 2941 | 16/03/2026 07:43:42 | 27.1  | 27.0  | 26.9  | 26.9  | 73.2  | 07:43 |
| 2940 | 16/03/2026 07:39:00 | 27.2  | 27.0  | 26.6  | 27.0  | 73.1  | 07:39 |
| 2939 | 16/03/2026 07:34:18 | 27.4  | 26.9  | 26.5  | 26.9  | 73.1  | 07:34 |
| 2938 | 16/03/2026 07:29:37 | 27.1  | 26.8  | 26.3  | 27.0  | 73.0  | 07:29 |
| 2937 | 16/03/2026 07:24:55 | 26.8  | 26.8  | 26.3  | 26.6  | 72.5  | 07:24 |
| 2936 | 16/03/2026 07:20:13 | 26.8  | 26.8  | 26.1  | 26.6  | 72.5  | 07:20 |
| 2935 | 16/03/2026 07:15:32 | 26.8  | 26.8  | 26.0  | 26.6  | 72.5  | 07:15 |
| 2934 | 16/03/2026 07:10:50 | 26.8  | 26.8  | 25.9  | 26.6  | 72.6  | 07:10 |
| 2933 | 16/03/2026 07:06:09 | 26.8  | 26.8  | 25.7  | 26.8  | 72.7  | 07:06 |
| 2932 | 16/03/2026 07:01:27 | 26.8  | 26.8  | 25.7  | 26.7  | 72.8  | 07:01 |
| 2931 | 16/03/2026 06:56:45 | 26.8  | 26.8  | 25.7  | 26.6  | 72.6  | 06:56 |
| 2930 | 16/03/2026 06:52:03 | 26.8  | 26.8  | 25.7  | 26.7  | 72.7  | 06:52 |
| 2929 | 16/03/2026 06:47:21 | 26.8  | 26.8  | 25.5  | 26.7  | 72.7  | 06:47 |
| 2928 | 16/03/2026 06:42:40 | 26.8  | 26.9  | 25.6  | 26.8  | 72.8  | 06:42 |